Regional Weather Roundup
Issued by NWS Jackson, KY

Home | Current Version | Previous Version | Text Only | Print | Product List | Glossary On
Versions: 1 2 3 4 5 6 7 8 9 10 11 12 13 14 15 16 17 18 19 20 21 22 23 24 25 26 27 28 29 30 31 32 33 34 35 36 37 38 39 40 41 42 43 44 45 46 47 48 49 50
373
ASUS43 KJKL 310010
RWRJKL

EAST KENTUCKY HOURLY WEATHER ROUNDUP
NATIONAL WEATHER SERVICE JACKSON KY
800 PM EDT MON MAY 30 2016

NOTE: "FAIR" INDICATES FEW OR NO CLOUDS BELOW 12,000 FEET WITH
NO SIGNIFICANT WEATHER AND/OR OBSTRUCTIONS TO VISIBILITY.

* THESE REPORTS ARE NOT UNDER NWS QUALITY CONTROL AND MAY NOT
  REPORT WEATHER SUCH AS PRECIPITATION AND FOG.

KYZ079-080-083-085-087-088-110-112-115-119-120-310100
...EASTERN KENTUCKY...

CITY           SKY/WX    TMP DP  RH WIND       PRES   REMARKS
JACKSON        CLEAR     79  61  53 CALM      30.01R
6HR MIN TEMP:  78; 6HR MAX TEMP:  83;

LONDON         CLEAR     80  59  48 NE5       30.00R
6HR MIN TEMP:  75; 6HR MAX TEMP:  85; 6HR PCP: TRACE;

SOMERSET*      CLEAR     79  54  41 NE6       29.99S
MONTICELLO*    CLEAR     80  63  55 N13       30.00R
6HR MIN TEMP:  80; 6HR MAX TEMP:  85;

WILLIAMSBURG*  CLEAR     77  63  61 NE5       29.99S
MIDDLESBORO*   CLEAR     80  64  57 NW3       29.99S
6HR MIN TEMP:  78; 6HR MAX TEMP:  84;

HARLAN APT*      N/A     79  59  50 CALM      30.01R
HAZARD APT*    CLEAR     79  59  50 NE3       30.00S
BLACK MTN*       N/A     64  59  82 N8          N/A
PIKE CO APT*     N/A     77  62  59 N6        30.01R
BIG SANDY APT* PTCLDY    78  62  56 CALM      30.00R
6HR MIN TEMP:  78; 6HR MAX TEMP:  83;

MOREHEAD APT*  CLEAR     81  61  50 CALM      30.02R
ASHLAND*       CLEAR     79  64  61 CALM      29.96R
$$

KYZ035-036-041-042-044-050-067-078-099-310100
...CENTRAL KENTUCKY...

CITY           SKY/WX    TMP DP  RH WIND       PRES   REMARKS
MT STERLING*   CLEAR     81  61  50 E3        30.01S
FLEMING/MASON* CLEAR    N/A N/A N/A CALM      30.00S
RICHMOND*      SUNNY     81  59  47 CALM      29.99S
LEXINGTON      CLEAR     81  58  45 N7        29.99S
6HR MIN TEMP:  81; 6HR MAX TEMP:  86;

FRANKFORT      CLEAR     85  55  35 N5        29.97S
6HR MIN TEMP:  84; 6HR MAX TEMP:  87;

LOUISVILLE     PTCLDY    85  54  34 N7        29.97R
6HR MIN TEMP:  84; 6HR MAX TEMP:  88;

LEBANON*         N/A     81  61  50 NW5       29.99R
GLASGOW*       PTCLDY    83  56  39 N3        29.98R
BOWLING GREEN  CLEAR     84  57  39 N5        29.97S
6HR MIN TEMP:  84; 6HR MAX TEMP:  89;

$$

KYZ091>093-OHZ055-061-077-WVZ005-015-034-035-042-310100
...SOUTHERN OHIO/WEST VIRGINIA...

CITY           SKY/WX    TMP DP  RH WIND       PRES   REMARKS
COVINGTON      PTCLDY    84  52  33 NW3       29.98S
COLUMBUS       PTCLDY    80  54  40 N8        29.96S
DAYTON         CLOUDY    84  55  36 NW3       29.98F
WILMINGTON     CLEAR     82  55  39 N5        29.98S
HUNTINGTON       N/A     81  59  47 N5        29.97S
CHARLESTON       N/A     81  59  47 CALM      29.98R
PINEVILLE*       N/A     74  58  57 MISG      30.06R
BECKLEY          N/A     74  59  59 NW6       30.05R
BLUEFIELD        N/A     74  54  49 VRB5      30.07R
LOGAN CO APT*    N/A     77  63  61 CALM      30.01R
$$

VAZ002-007-008-TNZ017-027-036-066-071-310100
...SOUTHWEST VIRGINIA/EAST TENNESSEE...

CITY           SKY/WX    TMP DP  RH WIND       PRES   REMARKS
WISE*            N/A     73  52  46 N8        30.08R
JONESVILLE*      N/A     79  66  65 CALM      30.01R
ABINGDON*        N/A     78  63  59 CALM      30.02S
BRISTOL        PTCLDY    78  63  59 CALM      29.99R
SEVIERVILLE*   CLEAR     77  63  61 CALM      29.96F
KNOXVILLE      PTCLDY    72  65  78 NE7       29.95F
OAK RIDGE      MOCLDY    85  58  39 CALM      29.97R
CROSSVILLE     CLEAR     78  57  48 N6        30.03R
NASHVILLE      PTCLDY    84  56  38 N6        29.97R
$$

...KEY TO REMARKS...
VSB - VISIBILITY IN MILES
WCI - WIND CHILL INDEX
HX  - HEAT INDEX

$$




USA.gov is the U.S. government's official web portal to all federal, state and local government web resources and services.